Flag for China Weather past 2 weeks in Chengdu, Sichuan, China

Now
41 °F

Clear.


Feels Like: 41 °F
Forecast: 38 / 52 °F
Wind: No wind

Location: Chengdu Airport

Current Time: Dec 22, 2014 at 5:20:09 AM

Latest Report: Dec 22, 2014 at 4:00 AM


Visibility: 4 mi

Pressure: 30.30 "Hg

Humidity: 70%

Dew point: 32 °F

Location of ChengduLocation

Historic Weather in Chengdu — Graph

°F

Chengdu temperature yesterday

Maximum temperature yesterday: 54 °F (at 2:00 PM)
Minimum temperature yesterday: 34 °F (at 5:00 AM)
Average temperature yesterday: 43 °F

Past Weeks' High & Low Weather Summary

 TemperatureHumidityPressure
High59 °F (Dec 7, 1:00 PM)94% (Dec 7, 10:00 AM)30.74 "Hg (Dec 7, 10:00 AM)
Low30 °F (Dec 19, 5:00 AM)17% (Dec 16, 12:00 AM)30.07 "Hg (Dec 8, 4:00 PM)
Average45 °F62%30.37 "Hg
* Reported Dec 7 4:00 AM — Dec 22 4:00 AM, Chengdu, Weather by CustomWeather, © 2014

Note: Actual official high and low records may vary slightly from our data, if they occured in-between our weather recording intervals... More about our weather records

Advertising

Chengdu weather history for previous 24 hours

 ConditionsComfort  
Time TempWeatherWind HumidityBarometerVisibility
4:00 AM
Dec 22
41 °FClear.No wind70%30.30 "Hg4 mi
3:00 AM41 °FClear.No wind61%30.33 "Hg4 mi
2:00 AM41 °FClear.No wind53%30.33 "Hg4 mi
1:00 AM41 °FClear.No wind61%30.36 "Hg5 mi
12:00 AM43 °FClear.No wind49%30.36 "Hg10 mi
11:00 PM
Dec 21
41 °FClear.No wind53%30.39 "Hg10 mi
10:00 PM37 °FClear.No wind65%30.39 "Hg10 mi
9:00 PM39 °FClear.No wind56%30.39 "Hg10 mi
8:00 PM45 °FClear.1 mph31%30.39 "Hg10 mi
7:00 PM43 °FClear.No wind39%30.39 "Hg10 mi
6:00 PM48 °FSunny.No wind25%30.36 "Hg10 mi
5:00 PM54 °FPassing clouds.3 mph19%30.39 "HgN/A
4:00 PM54 °FSunny.3 mph22%30.42 "Hg10 mi
3:00 PM54 °FPassing clouds.6 mph22%30.42 "HgN/A
2:00 PM54 °FSunny.3 mph19%30.48 "Hg10 mi
1:00 PM52 °FSunny.1 mph19%30.54 "Hg10 mi
12:00 PM50 °FSunny.3 mph22%30.60 "Hg10 mi
11:00 AM48 °FHaze.3 mph29%30.63 "Hg3 mi
10:00 AM43 °FFog.3 mph66%30.63 "Hg2 mi
9:00 AM37 °FFog.3 mph87%30.60 "Hg1 mi
8:00 AM36 °FFog.No wind93%30.60 "Hg1 mi
7:00 AM34 °FFog.1 mph87%30.57 "Hg1 mi
6:00 AM34 °FFog.No wind87%30.54 "Hg1 mi
5:00 AM34 °FFog.No wind87%30.51 "Hg1 mi
Weather by CustomWeather, © 2014

See weather overviewHow to use our weather pages